This is the latest recevied weather packets stored in our database for station/object N0NPO. If no packets are shown the sender has not sent any weather packets the latest 10 day(s).
| Time | Temp. | Humidity | Pressure | Rain* | Wind** | Luminosity | Snow |
|---|---|---|---|---|---|---|---|
| 1777838987 | 19.44° C | 1% | 1014.6 hPa | 0 mm | - | 650 W/m² | - |
| 1777838684 | 18.33° C | 1% | 1014.9 hPa | 0 mm | - | 609 W/m² | - |
| 1777838380 | 18.33° C | 1% | 1014.8 hPa | 0 mm | - | 653 W/m² | - |
| 1777838078 | 18.33° C | 1% | 1014.8 hPa | 0 mm | - | 656 W/m² | - |
| 1777837774 | 18.33° C | 1% | 1015 hPa | 0 mm | - | 635 W/m² | - |
| 1777837471 | 18.33° C | 1% | 1014.9 hPa | 0 mm | - | 694 W/m² | - |
| 1777837166 | 18.89° C | 1% | 1015 hPa | 0 mm | - | 663 W/m² | - |
| 1777836862 | 18.33° C | 1% | 1015 hPa | 0 mm | - | 675 W/m² | - |
| 1777836558 | 18.33° C | 1% | 1015.2 hPa | 0 mm | - | 643 W/m² | - |
| 1777836255 | 18.33° C | 1% | 1015.1 hPa | 0 mm | - | 606 W/m² | - |
| 1777835950 | 18.33° C | 1% | 1015.2 hPa | 0 mm | - | 697 W/m² | - |
| 1777835648 | 18.33° C | 1% | 1015.3 hPa | 0 mm | - | 657 W/m² | - |
| 1777835344 | 18.33° C | 1% | 1015.6 hPa | 0 mm | - | 648 W/m² | - |
| 1777835042 | 17.78° C | 1% | 1015.6 hPa | 0 mm | - | 718 W/m² | - |
| 1777834738 | 18.33° C | 1% | 1015.8 hPa | 0 mm | - | 675 W/m² | - |
| 1777834435 | 18.33° C | 1% | 1015.8 hPa | 0 mm | - | 699 W/m² | - |
| 1777834134 | 17.78° C | 1% | 1015.9 hPa | 0 mm | - | 719 W/m² | - |
| 1777833830 | 17.78° C | 1% | 1015.7 hPa | 0 mm | - | 716 W/m² | - |
| 1777833526 | 17.78° C | 1% | 1015.9 hPa | 0 mm | - | 491 W/m² | - |
| 1777833224 | 17.78° C | 1% | 1016 hPa | 0 mm | - | 530 W/m² | - |
| 1777832921 | 17.78° C | 1% | 1016 hPa | 0 mm | - | 741 W/m² | - |
| 1777832620 | 17.22° C | 1% | 1016.2 hPa | 0 mm | - | 719 W/m² | - |
| 1777832317 | 17.78° C | 1% | 1016.2 hPa | 0 mm | - | 710 W/m² | - |
| 1777832014 | 17.78° C | 1% | 1016.3 hPa | 0 mm | - | 734 W/m² | - |
| 1777831710 | 17.22° C | 1% | 1016.3 hPa | 0 mm | - | 592 W/m² | - |
* Rain latest hour (hover to see other rain measurements)
** Current wind speed in m/s (hover to see current wind gust speed)